Regional Weather Roundup
Issued by NWS

Home | Current Version | Previous Version | Text Only | Print | Product List | Glossary On
Versions: 1 2 3 4 5 6 7 8 9 10 11 12 13 14 15 16 17 18 19 20 21 22 23 24 25 26 27 28 29 30 31 32 33 34 35 36 37 38 39 40 41 42 43 44 45 46 47 48 49 50
025
ASUS43 KMKX 210921
RWRWI

WISCONSIN REGIONAL WEATHER ROUNDUP
NATIONAL WEATHER SERVICE MILWAUKEE/SULLIVAN WI
300 AM CST TUE FEB 21 2017

NOTE: "FAIR" INDICATES FEW OR NO CLOUDS BELOW 12,000 FEET WITH NO
SIGNIFICANT WEATHER AND/OR OBSTRUCTIONS TO VISIBILITY.

WIZ001-002-006>008-014>016-023>028-211000-
NORTHWEST WISCONSIN

CITY           SKY/WX    TMP DP  RH WIND       PRES   REMARKS
SUPERIOR ARPT  MOCLDY    37  35  94 W8        29.79R WCI  31
ASHLAND        CLOUDY    40  37  89 W14G25    29.76R WCI  32
HAYWARD        CLOUDY    39  36  89 W9        29.81R WCI  33
SIREN          CLOUDY    38  35  91 W8        29.84R WCI  32
CUMBERLAND     CLOUDY    36  34  93 W9        29.84R WCI  29
RICE LAKE      CLOUDY    39  37  91 W9        29.86R WCI  33
CHETEK         CLOUDY    40  38  94 W7        29.85R
LADYSMITH      CLOUDY    42  41  98 W9        29.83R
EAU CLAIRE     CLOUDY    41  39  93 W14       29.86R
MENOMONIE      CLOUDY    40  37  89 W9        29.88R WCI  35
NEW RICHMOND   CLOUDY    37  37  97 W9        29.88R WCI  31
OSCEOLA        NOT AVBL
$$

WIZ003>005-009-010-017-018-211000-
NORTH CENTRAL WISCONSIN

CITY           SKY/WX    TMP DP  RH WIND       PRES   REMARKS
MANITOWISH WTR MOCLDY    43  43 100 W9        29.71R
ARBOR VITAE    MOCLDY    46  45  95 W7G16     29.73R
WOODRUFF       MOCLDY    46  45  95 W7G16     29.73R
RHINELANDER    CLOUDY    47  47 100 W17       29.74R
EAGLE RIVER    CLOUDY    47  47 100 W14G22    29.71R
LAND O LAKES   CLOUDY    47  46  98 W6        29.72R
PHILLIPS       CLOUDY    43  42  97 W7        29.78R
TOMAHAWK       CLOUDY    45  45  97 W8        29.77R
MEDFORD        CLOUDY    43  41  94 W13G22    29.79R
MERRILL        NOT AVBL
$$

WIZ029-030-035-036-043>047-211000-
CENTRAL WISCONSIN

CITY           SKY/WX    TMP DP  RH WIND       PRES   REMARKS
WAUSAU         CLOUDY    48  46  93 W17       29.76R
MOSINEE        CLOUDY    45  45 100 W16       29.80R
MARSHFIELD     CLOUDY    45  42  89 W15       29.80R
STEVENS POINT  CLOUDY    48  47  97 W10G16    29.80R
WAUPACA        CLOUDY    55  55  97 SW8       29.78S FOG
WAUTOMA        CLOUDY    54  54 100 W13       29.81R
WISC RAPIDS    CLOUDY    50  48  93 W8        29.82R
CAMP DOUGLAS   MOCLDY    49  45  87 W18G26    29.83R
$$

WIZ011>013-019>022-031-037>040-048>050-211000-
NORTHEAST WISCONSIN

CITY           SKY/WX    TMP DP  RH WIND       PRES   REMARKS
ANTIGO         CLOUDY    46  46 100 W16G24    29.75R FOG
SHAWANO        CLOUDY    54  53  95 SW8       29.75S FOG
OCONTO         CLOUDY    49  48  97 SW3       29.74F
STURGEON BAY   CLOUDY    43  42  97 S14       29.75F FOG
GREEN BAY      CLOUDY    53  53 100 SW13      29.76F
MANITOWOC      CLOUDY    43  41  93 MISG      29.80F
APPLETON       CLOUDY    52  52 100 SW15      29.77S
CLINTONVILLE   CLOUDY    52  50  93 SW10      29.77R FOG
OSHKOSH        CLOUDY    53  51  93 SW9       29.79S
$$

WIZ032>034-041-042-053>061-211000-
SOUTHWEST WISCONSIN

CITY           SKY/WX    TMP DP  RH WIND       PRES   REMARKS
LA CROSSE      CLOUDY    44  40  85 W6        29.90R
SPARTA         CLOUDY    45  42  91 W7        29.88R
VIROQUA        CLOUDY    44  43  95 W8        29.87R
BOSCOBEL       CLOUDY    49  45  86 SW7       29.89R
PRAIRIE DU CHI PTCLDY    44  41  88 W5        29.91R
PLATTEVILLE    CLOUDY    48  48 100 W9        29.89R
$$

WIZ056-057-062-063-064-067-068-211000-
SOUTH CENTRAL WISCONSIN

CITY           SKY/WX    TMP DP  RH WIND       PRES   REMARKS
REEDSBURG      MOCLDY    49  47  93 W13       29.85R
BARABOO/DELLS  CLOUDY    54  50  86 W13G20    29.84R
LONE ROCK      MOCLDY    51  47  86 W10       29.87R
MINERAL POINT  CLOUDY    50  50 100 W7        29.88R
MADISON        CLOUDY    55  54  96 SW7       29.84R
MIDDLETON        N/A     57  55  95 W14       29.84S
WATERTOWN      CLOUDY    53  53 100 S7        29.83S
MONROE         CLOUDY    54  52  94 SW12      29.85F FOG
JANESVILLE     CLOUDY    55  55 100 S7        29.84F
$$

WIZ051-052-058>065-066-070>072-211000-
SOUTHEAST WISCONSIN

CITY           SKY/WX    TMP DP  RH WIND       PRES   REMARKS
MILWAUKEE      LGT RAIN  55  51  86 SW12      29.86F
WAUKESHA       CLOUDY    52  52 100 S8        29.84F FOG
MILWAUKEE/TIMM DRIZZLE   52  50  93 S7        29.84F
RACINE         LGT RAIN  54  50  86 SW7       29.88F
KENOSHA        CLOUDY    54  50  86 SW6       29.88F
FOND DU LAC    CLOUDY    55  51  86 SW9G21    29.80F
SHEBOYGAN      CLOUDY    46  45  96 SW6       29.80F FOG
WEST BEND      CLOUDY    52  52 100 SW8       29.82F FOG
JUNEAU         FOG       53  53  99 SW13      29.84R VSB 1
$$

LSZ147-162-211000-
LAKE SUPERIOR

STATION/POSITION TIME  TEMP    WIND        PRES    WAVE
                       AIR SEA DIR/SP/G            HT/PER
                 (UTC) (F)     (DEG/KT/KT) (MB)    (FT/S)
DEVILS ISLAND    0900   38     240/ 29/ 33 1006.5R
PORT WING        0840   38     230/ 12/ 17 1008.5R
SAXON HARBOR     0830   46     250/ 11/ 15 1006.4R
$$

LMZ867-665-643>646-211000-
LAKE MICHIGAN

STATION/POSITION TIME  TEMP    WIND        PRES    WAVE
                       AIR SEA DIR/SP/G            HT/PER
                 (UTC) (F)     (DEG/KT/KT) (MB)    (FT/S)
CHAMBERS ISLAND  0840   45     150/  8/ 15 1006.4F
NORTHPORT PIER   0840   43     170/ 11/ 17 1007.5F
SISTER BAY       0835   43     160/ 20/ 24   N/A
KEWAUNEE LAKESHO 0854   39     190/ 16/ 18 1008.0F
SHEBOYGAN LAKESH 0900   40     180/ 21/ 23 1009.1F
PORT WASHINGTON  0900   41     190/  7/ 11 1010.8
MILWAUKEE LAKESH 0900   53     220/  7/  8   N/A
KENOSHA   LAKESH 0900   56     210/  5/  9 1011.9
$$

TC  - TEMPERATURE IN CELSIUS
VSB - VISIBILITY IN STATUTE MILES
WCI - WIND CHILL INDEX
HX  - HEAT INDEX





USA.gov is the U.S. government's official web portal to all federal, state and local government web resources and services.